Theta_e
321 320 322 323 323 325 326 325 323 325 325 317 318 320 322 325 324 326 326 327 330 330 331 332 334 333 333 334 334 333 332 335 338 334 336 341 339 338 339 338 340 340 341 342 342 339 337 336 337 337 334 333 333 335 336 339 340 340 341 340 341 341 341 340 339 336 334 334 332 331 329 330 331 331 331 331 331 331 331 331 331 331 332 332 332 332 332 332 331 331 331 329 328 328 328 327 327
323 320 322 323 325 325 325 324 321 321 320 315 318 321 323 326 325 327 326 328 334 332 331 331 333 333 333 333 332 332 334 335 336 338 338 339 338 339 339 339 340 340 341 342 342 341 340 338 336 336 333 331 330 332 335 337 340 340 340 340 341 340 340 340 338 336 334 332 328 327 330 331 330 331 331 331 331 331 331 331 331 331 331 331 332 332 332 331 331 331 330 330 328 327 327 327 326
324 320 322 323 325 325 324 324 320 316 317 315 318 323 325 325 326 327 328 331 333 332 332 332 333 334 333 333 333 333 336 335 337 338 338 338 338 339 339 340 340 340 341 341 342 341 342 339 337 336 332 330 330 330 331 335 339 339 339 340 340 339 339 339 338 335 334 331 327 327 330 330 330 331 332 331 330 331 331 330 331 331 331 331 332 332 331 332 331 330 330 330 329 327 326 326 326
323 321 323 324 325 326 325 324 321 317 315 315 316 323 325 326 327 328 331 332 333 332 333 332 333 335 333 335 335 333 336 337 338 339 339 339 339 339 339 340 340 341 341 341 342 341 342 339 337 336 332 331 330 330 331 332 336 338 339 339 338 338 338 338 338 336 333 331 329 329 330 331 331 332 332 332 331 331 330 330 331 331 331 331 331 331 331 331 330 329 330 329 328 327 327 326 326
324 323 323 325 326 326 326 324 323 318 316 317 317 322 325 326 327 328 333 332 332 333 333 333 334 336 333 334 334 334 335 337 339 339 340 339 339 339 339 340 340 341 341 341 341 341 342 339 337 335 333 333 331 330 331 331 334 337 337 336 336 336 336 336 337 336 333 332 331 332 332 332 332 331 331 331 330 330 330 331 331 330 330 330 331 331 331 330 330 329 329 329 328 327 326 326 326
325 324 324 325 326 324 325 321 319 318 320 323 322 323 324 326 327 330 333 332 332 333 332 333 334 334 333 334 334 335 336 338 339 339 340 339 339 338 339 340 340 340 341 341 341 341 341 339 337 334 334 334 331 328 330 330 333 336 335 335 334 334 334 334 335 335 333 332 332 334 333 333 333 331 330 329 330 330 330 331 330 330 330 330 330 330 330 330 330 329 329 328 328 326 326 326 326
325 324 325 326 326 325 326 321 319 320 322 323 324 325 324 325 328 331 331 331 331 331 331 331 333 331 332 334 335 336 336 338 340 338 340 339 338 338 339 339 340 340 340 340 340 341 341 339 336 334 333 333 331 329 330 331 333 335 334 334 334 334 333 332 333 333 333 332 332 334 334 334 334 332 330 329 329 328 329 330 329 330 330 330 330 330 330 329 329 329 328 328 327 326 326 326 325
326 326 325 326 328 328 327 324 322 323 322 321 323 324 326 327 328 330 330 330 331 330 330 330 331 330 332 332 332 338 336 336 338 337 339 339 339 339 339 339 339 340 340 340 340 341 341 338 336 333 332 332 331 329 330 332 333 334 334 334 333 333 333 331 332 332 332 331 332 334 334 335 334 332 329 329 329 329 329 330 329 330 329 329 329 329 329 329 329 328 328 327 326 325 325 325 324
325 327 326 327 330 329 326 325 325 324 323 322 322 323 326 328 328 329 329 328 328 328 327 329 330 329 330 328 331 337 336 336 336 336 338 338 339 339 339 338 338 340 340 340 340 341 340 338 336 333 332 333 331 329 330 331 332 333 334 334 333 333 333 331 332 333 332 331 332 334 335 335 334 332 330 330 330 329 329 329 329 329 329 329 329 329 328 329 328 328 328 327 325 324 324 323 322
326 327 328 329 330 326 323 325 326 325 323 322 323 324 326 328 328 329 329 328 326 325 328 329 328 327 328 328 332 337 337 337 336 337 338 339 339 339 339 338 339 340 340 340 340 341 340 338 336 333 333 334 332 330 329 329 331 334 334 333 333 333 333 332 333 333 332 332 334 334 335 335 334 333 332 330 328 329 329 328 329 329 328 328 328 328 328 328 328 328 327 325 324 324 322 322 321
327 328 328 330 327 323 322 325 326 325 324 322 324 325 327 328 327 328 327 327 324 324 329 328 327 326 326 326 332 337 337 337 338 339 339 339 339 338 339 338 339 340 340 340 339 340 340 338 336 333 334 334 332 331 329 327 329 331 332 333 333 333 333 332 332 332 331 331 333 334 334 335 334 334 333 331 329 330 329 328 329 328 327 327 328 327 327 327 327 327 326 324 323 322 321 321 321
328 330 330 330 327 327 326 326 326 325 324 322 324 326 328 328 328 327 325 325 323 323 326 327 328 327 325 326 333 337 337 337 339 340 339 340 339 338 339 338 339 339 340 340 339 340 340 339 336 334 334 334 333 332 329 328 329 329 330 332 332 333 333 332 332 332 331 330 330 331 332 334 334 334 333 332 331 330 329 328 328 326 325 326 327 327 327 327 327 326 325 323 322 322 321 321 320
329 331 331 331 330 332 329 327 327 326 324 323 325 327 328 328 327 326 324 324 323 323 325 326 326 325 326 326 331 335 337 338 339 339 339 339 339 339 339 339 339 339 339 340 339 339 339 339 337 336 335 333 333 333 331 329 330 330 329 331 332 332 332 333 332 332 332 330 328 327 330 332 333 333 333 333 331 330 329 328 327 325 325 325 326 326 326 327 326 325 324 322 321 321 321 320 320
327 330 329 331 332 333 331 329 329 325 324 325 327 327 328 328 327 326 324 324 323 324 327 327 325 325 325 322 327 333 337 339 339 339 338 339 339 338 338 339 339 339 339 339 339 339 339 339 338 337 336 334 333 334 333 330 330 330 330 330 331 332 331 332 332 332 332 330 328 325 327 329 331 332 332 332 331 330 329 328 327 326 325 325 326 326 325 326 324 323 321 320 321 321 321 320 320
326 328 329 331 331 331 331 331 330 326 326 327 327 328 328 328 327 326 324 324 325 325 325 327 327 327 323 319 329 336 339 339 338 338 338 338 339 339 338 339 339 339 339 339 339 339 339 338 338 338 337 336 335 335 334 333 330 329 330 330 330 330 331 331 331 332 331 330 328 325 326 328 329 331 331 331 330 330 329 327 327 326 325 325 326 325 324 324 322 321 320 320 321 321 321 320 320
325 326 329 331 329 329 330 332 331 328 327 326 325 327 328 327 326 326 324 324 325 323 323 325 327 327 322 322 331 334 338 339 338 338 338 338 339 339 339 339 338 339 339 339 338 339 338 338 338 338 338 336 336 336 335 334 332 329 329 329 329 330 330 331 331 331 330 330 328 326 326 328 329 330 330 330 330 329 328 328 327 325 325 324 325 323 323 323 320 319 320 320 321 321 321 321 321
325 326 328 329 329 329 331 332 331 328 327 324 325 326 327 327 325 324 323 323 324 323 323 325 326 327 324 327 331 332 337 338 338 338 338 337 338 338 338 338 338 338 338 338 338 338 338 338 338 337 337 337 336 336 335 335 334 331 328 328 329 330 330 330 330 330 329 329 329 327 326 328 330 330 329 329 330 329 328 328 327 325 324 322 323 323 321 321 319 319 320 321 321 321 321 322 321
328 329 329 328 330 331 331 332 329 328 327 324 324 325 325 326 325 323 323 323 324 324 324 324 327 326 326 330 331 331 336 338 338 338 338 337 337 337 337 338 338 338 338 338 338 338 338 338 338 337 337 337 336 335 335 335 335 332 330 329 329 330 330 330 330 329 329 329 329 328 326 327 328 329 329 329 329 329 328 328 327 326 325 322 321 321 319 319 320 320 320 321 321 321 322 323 323
330 332 330 329 332 330 327 328 327 326 325 323 323 324 324 324 324 323 323 323 324 325 325 324 326 325 326 330 330 331 335 338 338 338 339 338 338 337 337 337 337 337 337 337 337 337 337 337 337 337 336 336 336 335 334 335 335 334 331 331 330 331 330 330 330 330 329 329 329 328 327 326 326 327 329 329 328 328 328 328 327 327 326 324 320 319 318 319 320 320 321 321 321 322 323 323 323
330 332 332 332 331 329 326 325 325 322 321 321 321 321 322 323 323 323 323 324 325 325 324 325 325 325 326 329 330 332 334 338 339 338 339 338 338 338 338 337 337 337 336 336 336 337 336 336 337 336 336 336 336 335 335 334 335 334 332 332 332 332 331 330 330 331 331 330 329 328 326 326 326 325 326 326 327 327 327 327 327 326 327 325 321 317 318 319 320 321 321 321 322 323 324 323 322
330 331 332 332 329 329 327 324 322 320 319 320 320 320 321 322 322 323 323 324 325 325 324 325 325 323 325 328 331 332 332 336 338 339 339 339 339 338 337 337 337 337 336 336 335 336 336 336 336 336 336 335 335 335 334 334 334 334 333 332 332 332 332 331 331 331 331 330 329 328 326 327 326 324 324 324 325 326 326 326 326 327 326 326 322 317 318 318 319 321 321 321 323 324 323 322 322
329 329 330 331 328 328 326 322 320 318 318 319 320 320 321 321 321 322 323 323 324 324 323 324 324 323 325 329 331 332 332 334 337 338 338 338 338 338 337 337 336 336 336 335 335 335 335 335 335 336 336 335 335 335 334 334 333 333 333 333 332 332 332 331 331 331 331 330 329 328 327 327 326 324 324 323 324 325 326 326 326 326 325 325 322 317 319 321 320 323 323 323 324 323 323 323 322
329 330 329 330 328 327 325 320 317 316 318 320 320 320 319 320 320 321 322 323 323 322 321 322 323 324 327 330 332 331 331 333 335 336 337 338 338 337 337 336 336 336 335 335 334 335 334 335 335 335 336 335 335 335 334 334 333 333 333 333 332 331 331 331 331 330 330 329 328 328 327 326 325 324 323 323 323 324 324 325 325 324 323 324 323 320 321 323 321 323 323 323 324 324 323 323 323
328 330 330 329 327 327 324 319 316 316 318 318 318 317 318 320 321 321 321 321 322 321 320 320 321 322 325 327 330 330 330 333 334 334 335 336 337 337 337 336 336 336 335 335 334 334 334 334 334 335 335 335 335 334 334 334 333 333 333 333 333 332 332 331 330 330 329 329 328 328 327 325 324 323 323 322 322 323 323 323 323 323 323 323 324 322 322 322 322 322 322 323 323 324 323 323 323
328 330 330 328 325 327 324 320 319 318 318 317 316 317 319 320 319 319 319 320 321 321 321 319 320 320 320 323 326 327 329 331 333 333 335 335 335 337 337 336 336 336 336 335 335 334 334 333 334 334 335 335 334 334 334 333 333 333 333 333 333 332 332 331 330 329 328 328 327 327 326 324 324 323 323 322 322 322 322 322 322 322 322 323 324 323 321 322 321 321 321 322 323 324 323 323 323
329 329 330 328 325 326 323 322 322 320 320 319 319 322 323 320 317 318 319 319 320 320 321 320 320 321 320 321 322 325 326 329 332 332 334 335 335 336 336 337 336 336 336 335 335 334 334 333 333 334 334 335 334 334 333 333 333 333 332 332 333 332 331 331 330 329 328 327 327 326 325 324 324 324 323 323 322 322 321 322 322 322 322 323 323 322 321 321 321 320 320 321 323 323 323 323 323
328 328 330 328 326 325 322 323 323 321 321 320 321 325 325 319 317 321 322 319 320 319 319 319 319 320 321 321 321 324 325 326 330 331 333 335 335 336 336 337 337 336 335 335 335 334 334 333 333 334 334 334 334 334 333 333 333 333 333 332 332 332 332 331 330 330 329 327 326 326 325 324 324 324 324 324 323 322 321 320 320 321 321 321 322 322 321 321 320 320 320 321 323 323 323 323 323
327 328 329 327 325 324 322 323 323 321 322 321 321 324 324 321 318 322 324 320 320 319 319 319 320 320 320 320 321 323 325 325 327 330 332 334 335 336 335 336 336 336 335 334 335 334 334 333 333 333 334 334 333 333 333 333 332 333 333 332 332 332 331 331 330 330 329 328 327 326 326 325 324 324 324 324 324 323 322 320 319 319 319 319 321 321 321 321 320 320 321 321 322 323 323 323 323
326 326 328 327 325 325 324 324 324 322 324 322 321 324 325 325 322 322 323 322 321 320 321 321 320 321 320 320 321 323 325 325 325 329 331 332 334 335 335 335 335 335 334 334 334 334 334 333 333 333 334 334 334 333 333 333 332 332 332 332 332 332 331 331 330 330 330 329 328 327 327 326 325 324 324 324 324 323 322 321 321 320 319 319 321 320 319 321 320 320 321 321 319 320 322 323 323
326 326 328 329 328 327 326 326 325 323 324 322 323 327 329 329 328 325 324 323 323 323 323 323 323 322 321 322 321 322 325 326 326 329 330 330 330 332 333 333 334 335 334 334 334 334 334 333 333 333 333 333 334 333 332 332 332 332 332 332 332 332 331 331 330 330 329 329 328 328 328 327 326 325 324 324 324 323 323 323 322 321 320 320 321 320 319 320 320 320 321 320 318 318 321 322 323
327 329 329 331 329 328 328 327 325 325 324 322 324 328 330 331 331 329 326 324 324 325 324 324 324 324 324 324 323 322 324 326 327 328 329 329 328 330 332 332 333 334 334 334 334 334 334 333 333 332 332 332 333 333 332 332 331 331 331 331 332 332 331 330 330 329 329 329 329 328 328 327 327 326 325 324 323 323 324 324 323 323 323 322 321 320 320 320 320 320 321 320 320 320 321 322 323
329 331 330 331 330 329 330 327 325 327 325 322 325 328 330 331 331 330 328 325 324 326 326 326 326 326 326 326 325 324 323 324 325 326 327 328 328 329 331 332 331 332 334 334 335 335 334 334 332 332 331 331 332 333 332 332 331 331 331 331 331 331 331 330 329 328 328 329 329 328 327 327 327 327 326 325 324 323 324 324 324 324 324 323 322 321 321 320 321 322 321 320 321 322 322 322 323
331 332 330 331 331 330 330 328 326 328 327 323 325 329 331 331 330 329 327 325 325 326 327 327 327 327 327 327 326 325 323 323 323 324 326 327 328 329 330 331 330 331 332 333 334 334 335 334 332 332 332 331 332 333 332 332 331 331 331 330 330 331 331 330 329 329 328 328 328 328 328 327 327 327 327 326 325 323 324 324 324 324 324 324 324 322 322 321 322 322 321 321 322 322 322 323 323
333 332 331 331 332 331 330 328 327 328 329 327 326 328 330 331 329 328 325 325 325 326 326 326 326 327 326 326 326 325 324 323 323 324 325 325 326 327 328 330 329 330 331 331 332 334 334 334 333 332 332 332 332 333 333 332 331 331 330 330 330 330 330 330 329 329 328 328 328 328 328 328 327 327 327 327 326 324 323 324 324 324 324 324 324 323 323 322 321 321 322 322 322 322 322 322 323
333 333 333 333 332 332 331 330 329 328 329 329 328 328 329 329 330 329 327 326 325 326 326 327 327 326 326 326 325 325 325 324 325 325 325 325 325 326 327 329 330 329 330 331 331 332 333 333 334 333 332 332 333 333 333 333 332 331 330 330 330 330 330 330 329 329 328 327 327 327 327 328 327 327 327 327 327 325 323 324 324 324 324 323 323 323 323 322 322 322 322 322 323 323 322 322 322
332 333 333 332 330 330 331 331 329 327 329 329 330 330 329 329 329 329 328 327 326 326 326 326 327 326 326 326 326 325 326 325 326 327 326 327 326 326 327 328 330 330 330 330 331 331 332 332 333 333 332 332 333 333 333 333 332 331 330 330 330 330 330 329 329 328 328 327 327 327 327 328 328 327 327 327 327 326 324 323 324 324 324 323 323 324 323 323 323 323 323 322 323 323 322 322 322
330 332 332 330 329 328 329 330 326 325 329 329 330 330 330 329 329 328 328 328 328 327 326 326 326 327 327 326 326 326 327 327 328 328 327 328 328 326 325 325 327 329 330 330 331 331 331 332 332 333 333 333 333 333 333 332 331 331 330 330 330 330 329 329 329 328 328 328 327 327 327 328 328 328 327 326 327 327 325 324 324 324 323 322 323 324 323 323 322 323 323 322 322 323 323 323 322
329 329 330 329 328 328 328 328 325 324 327 329 329 329 329 329 328 328 327 328 328 327 327 327 326 326 327 327 327 327 327 327 328 328 327 327 327 326 325 324 324 326 329 330 331 331 331 331 332 332 333 333 333 333 333 332 331 331 331 330 330 329 329 329 328 328 328 328 327 327 328 328 329 328 327 326 326 326 326 325 324 324 323 322 323 324 323 322 323 323 323 322 322 322 323 323 322
330 329 328 328 329 328 328 328 325 324 326 328 328 328 327 327 327 327 327 327 327 327 326 327 326 326 327 327 327 327 327 327 327 327 327 327 327 326 325 324 323 324 326 328 330 331 331 331 331 331 332 332 332 332 332 332 331 331 330 330 330 329 329 328 328 328 327 327 327 327 328 329 329 328 328 327 326 326 326 325 325 324 324 323 323 323 323 323 323 323 323 323 322 322 322 322 323
330 329 328 328 328 327 327 326 326 325 325 327 326 326 326 326 326 325 325 326 326 327 326 326 326 326 327 327 327 327 327 327 327 326 327 327 327 327 326 325 324 323 324 325 327 330 331 331 331 331 331 331 332 331 331 332 332 331 331 331 331 330 329 328 328 328 327 327 327 327 328 329 329 329 328 328 327 326 326 326 325 325 324 324 323 323 323 323 323 323 323 322 322 322 323 322 322
330 329 328 327 326 325 325 325 326 326 324 325 326 326 326 325 326 325 324 325 325 326 326 326 326 326 327 327 327 327 327 327 327 326 327 327 327 327 326 326 324 324 324 324 325 327 329 330 330 330 330 331 332 331 330 331 332 332 332 331 331 330 329 329 328 328 328 327 327 327 327 328 329 329 328 328 328 327 326 327 326 326 325 325 324 323 323 322 322 323 323 322 322 322 322 322 322
331 329 327 326 325 325 325 325 326 326 325 324 326 327 325 322 323 325 324 325 325 325 326 326 326 326 326 327 327 327 327 327 327 327 326 327 327 327 327 326 326 325 325 324 325 326 328 329 330 330 330 331 331 331 330 330 332 332 332 331 331 330 329 329 328 328 328 328 328 327 327 327 328 329 328 328 328 327 327 327 327 327 326 325 325 324 323 323 323 323 322 322 322 321 321 322 322
330 328 326 325 325 325 324 325 327 327 325 323 324 327 326 322 321 322 323 324 324 325 326 326 326 325 326 326 326 326 326 327 327 327 327 327 327 327 326 326 326 325 325 324 324 325 327 328 330 330 330 330 331 331 331 330 331 332 333 332 331 330 330 330 329 328 329 329 328 328 328 328 327 328 328 328 328 327 327 327 328 328 327 326 326 325 325 324 324 323 322 322 322 321 321 321 322
328 327 326 326 325 325 325 326 327 326 323 324 324 326 328 326 323 322 322 323 324 325 325 326 325 324 324 324 324 325 325 326 327 328 327 326 326 326 325 325 325 325 324 324 324 324 325 327 328 330 330 330 331 331 331 330 331 332 333 332 331 331 331 330 330 329 329 329 329 329 329 329 328 328 328 328 328 328 327 327 327 328 328 327 327 326 326 325 325 324 323 323 322 322 322 321 320
329 325 325 326 326 326 326 326 328 327 327 328 326 326 330 329 325 323 323 322 322 323 324 324 324 324 324 323 323 324 325 325 326 327 327 326 326 325 325 324 324 323 324 324 323 322 324 326 327 329 330 330 331 330 330 331 330 331 332 332 332 331 331 331 331 330 330 330 330 330 329 329 329 329 328 329 328 328 328 327 327 327 328 328 327 327 326 326 326 325 325 324 323 323 323 321 320
328 326 326 326 327 328 328 329 329 330 331 331 327 325 329 329 324 323 324 323 323 323 322 322 323 324 324 323 324 324 323 325 326 326 326 325 325 324 324 323 323 323 323 323 322 322 323 325 326 328 329 329 331 330 330 330 330 330 331 332 332 332 331 331 331 330 330 330 329 330 330 330 330 330 329 329 328 328 328 327 326 327 328 328 328 327 327 326 326 325 325 325 325 324 323 322 321
327 328 329 328 328 329 331 330 329 332 333 332 328 325 327 329 326 322 324 324 324 324 322 322 323 323 323 323 323 324 322 324 325 325 324 324 324 323 322 322 322 322 322 321 321 321 321 322 324 326 328 328 330 331 330 330 330 330 329 330 332 332 332 331 331 331 331 330 330 330 330 330 330 330 330 329 329 329 328 328 327 327 327 328 328 327 327 327 326 326 326 325 325 325 324 323 322
326 329 329 328 327 328 329 329 330 334 335 331 328 325 326 329 327 322 323 324 323 323 322 322 323 322 323 323 322 323 323 324 325 324 324 324 323 323 322 322 321 321 321 321 320 320 319 320 322 324 326 327 329 330 330 330 330 330 329 330 331 332 332 332 331 331 331 331 331 330 330 330 330 330 330 329 329 329 328 328 327 327 327 328 328 327 327 327 326 326 326 325 325 325 325 324 323
326 327 326 326 327 329 331 331 331 334 333 329 326 326 328 328 325 322 323 323 322 323 322 321 322 321 322 322 322 323 323 324 324 325 325 325 324 324 324 323 323 323 322 322 321 320 319 320 321 322 324 325 327 329 330 330 330 330 329 329 330 330 331 332 332 331 331 331 331 331 330 330 330 330 330 329 329 328 328 328 328 327 327 327 327 327 327 327 326 327 326 326 325 325 324 324 324
325 324 325 326 327 330 333 332 332 332 331 328 325 328 330 327 324 323 323 323 322 322 322 322 322 322 322 322 323 323 324 324 324 325 326 326 326 326 325 324 323 323 322 322 322 321 320 320 320 321 321 323 325 327 329 330 330 330 330 330 329 329 329 331 331 331 331 331 331 331 331 330 330 330 330 329 328 328 327 327 327 327 327 327 327 327 327 327 327 326 327 326 326 325 324 324 323
323 323 324 325 326 329 332 332 331 331 330 328 327 331 331 327 324 323 321 322 323 323 323 323 323 323 323 323 323 323 323 323 324 325 325 325 325 325 325 324 323 323 321 320 320 320 320 320 320 320 320 321 323 325 328 329 330 329 329 329 330 329 329 329 330 330 330 331 331 331 331 331 330 330 330 329 328 328 327 327 327 327 327 327 326 326 326 327 327 326 326 327 326 326 325 324 324
323 323 324 325 326 327 328 327 326 327 328 328 328 329 328 325 323 322 321 322 321 322 323 322 322 323 323 323 323 323 323 322 324 325 325 325 325 325 325 323 322 321 320 319 319 319 319 319 319 319 319 320 321 322 325 328 329 329 329 329 329 329 328 328 329 329 329 330 330 330 331 330 330 330 330 329 329 328 328 327 326 327 327 327 326 326 326 326 326 326 326 326 326 326 326 325 324
324 324 325 325 327 328 326 325 324 324 327 328 327 327 326 324 324 322 322 322 321 321 321 320 322 322 322 323 323 324 324 324 325 325 325 325 324 325 324 321 320 319 319 318 318 317 318 318 318 318 318 319 320 321 323 326 328 329 329 329 329 329 328 328 328 329 329 329 329 330 330 330 330 330 329 329 329 329 328 327 327 326 327 326 326 326 325 326 326 326 326 326 326 325 325 325 324
324 325 324 323 326 326 324 325 326 326 327 327 326 327 327 326 327 323 322 323 322 322 321 321 322 322 322 323 324 324 325 325 325 324 324 324 324 325 323 320 319 318 317 316 315 314 314 315 315 316 317 317 318 320 321 323 326 328 328 329 329 329 329 329 328 328 328 328 329 329 329 330 330 329 329 329 329 329 328 328 327 327 327 326 326 326 326 326 325 325 326 325 325 325 324 324 324
321 324 323 322 325 325 323 324 326 327 327 326 325 325 325 325 325 321 322 323 322 322 322 322 321 321 322 322 322 324 324 325 325 324 324 324 324 324 321 319 317 316 315 313 312 312 311 311 312 312 313 313 315 317 319 322 324 325 327 328 328 328 329 329 329 328 328 328 329 329 329 329 329 329 328 328 328 328 328 327 327 327 327 326 326 326 326 326 326 325 325 325 324 324 324 324 324
320 322 323 324 325 325 324 323 324 325 325 325 325 325 323 322 321 320 321 321 320 321 320 321 321 320 321 321 321 322 323 324 324 324 323 323 323 322 319 318 316 314 312 311 311 311 311 310 310 310 311 311 312 315 317 320 322 324 325 327 328 329 329 329 329 329 329 329 328 329 329 329 329 329 329 328 328 328 328 328 327 327 327 327 326 326 325 325 326 325 325 325 324 324 324 323 323
320 322 323 324 324 325 325 324 322 323 324 324 325 325 322 320 319 320 320 320 320 320 320 321 321 320 320 319 320 321 322 323 324 323 322 321 321 320 318 316 315 313 312 312 312 312 311 311 310 310 310 310 312 314 316 318 321 323 325 326 328 329 329 329 329 329 329 329 328 328 328 329 329 328 328 329 328 328 328 327 327 327 326 326 326 326 325 325 325 325 325 324 324 324 323 323 323
319 320 321 321 322 323 324 324 323 322 322 323 324 324 323 319 318 319 319 320 320 319 320 321 320 319 318 319 319 320 321 322 322 322 320 320 320 319 317 315 314 313 313 314 314 314 313 312 311 311 310 310 311 313 315 317 320 322 324 325 327 328 328 329 329 329 328 328 328 328 327 328 328 328 328 328 328 328 328 327 327 327 326 326 326 325 326 325 325 325 325 324 324 323 323 323 322
Wind_Speed
21 22 19 15 12 9 7 4 3 2 3 3 2 1 4 5 3 4 4 3 2 4 4 2 2 1 1 4 6 6 5 6 7 3 3 5 9 12 10 11 15 15 14 12 11 11 11 11 9 8 7 7 8 8 9 10 10 11 10 10 9 9 8 9 10 9 9 10 9 9 11 11 11 11 11 11 11 11 11 11 11 11 11 12 12 12 13 13 13 13 13 13 14 14 14 14 15
21 23 18 13 11 8 3 1 4 2 3 2 2 2 6 5 3 4 4 2 4 6 3 2 2 2 2 5 6 5 3 8 8 6 6 9 13 11 10 12 14 15 13 12 11 12 10 10 10 8 6 6 6 7 8 9 9 10 10 9 9 8 7 8 9 7 8 8 8 9 11 11 10 10 10 11 11 11 12 12 12 11 11 11 12 12 12 13 13 12 12 12 13 14 14 14 15
20 21 16 12 8 6 3 3 5 3 4 1 4 5 5 4 3 5 5 5 7 6 3 3 1 2 3 5 4 4 3 7 8 8 7 11 12 10 12 13 14 14 12 12 12 11 10 10 11 8 6 6 6 7 8 9 9 9 9 8 8 7 6 6 7 7 6 7 8 10 11 11 10 9 10 11 11 11 11 11 11 11 11 11 11 12 12 12 12 12 12 12 12 13 14 14 13
19 18 13 10 5 5 4 4 4 5 4 1 3 6 4 2 6 7 7 6 6 4 3 3 3 2 4 5 5 4 3 8 7 6 7 9 10 13 14 14 13 13 12 11 11 11 10 10 11 8 6 6 6 7 8 10 9 9 7 8 8 7 6 4 6 6 4 6 8 10 11 11 10 9 10 10 11 10 10 11 11 11 11 11 11 11 11 12 11 11 11 11 11 12 13 13 12
16 15 10 9 5 2 3 3 3 5 3 3 2 5 4 3 7 7 6 5 4 2 1 2 2 3 3 4 4 4 4 7 6 6 8 8 11 17 15 14 14 12 12 11 10 10 10 11 11 8 6 6 6 7 8 9 11 11 8 7 8 7 7 6 6 5 4 6 7 8 10 10 10 9 9 9 9 10 9 10 10 10 10 10 10 11 11 11 11 11 11 11 10 11 12 11 11
12 12 9 8 4 2 3 4 3 3 2 5 3 5 4 4 6 7 7 5 4 1 1 2 1 1 2 1 1 3 6 3 6 6 8 9 12 16 16 15 13 12 12 11 10 9 9 10 10 8 7 6 5 6 6 7 11 13 10 7 7 7 7 7 7 6 5 6 6 7 9 9 10 9 9 9 9 9 9 9 10 9 9 9 10 10 10 10 10 10 10 10 10 10 11 11 10
10 9 5 5 2 1 5 5 4 2 4 4 4 5 3 4 5 7 7 5 3 2 1 2 2 4 2 3 2 4 7 5 7 4 5 10 13 14 15 15 12 12 11 11 10 10 8 8 10 9 7 6 4 5 5 6 10 12 11 8 7 7 6 7 8 8 8 7 7 7 8 9 9 8 9 9 9 9 8 9 9 8 9 9 9 9 9 10 10 10 10 9 9 10 10 10 9
7 5 2 4 4 3 5 5 3 2 4 3 3 4 3 4 4 6 6 3 3 3 3 2 2 5 1 2 2 6 7 7 9 6 7 12 14 13 14 13 13 12 11 11 9 9 9 8 11 10 8 6 4 5 5 5 9 11 10 9 8 7 6 6 8 8 8 9 8 8 7 9 9 7 7 9 10 9 9 8 8 8 8 8 9 9 9 9 9 9 9 9 8 9 9 9 8
6 4 2 4 5 3 5 5 2 0 2 3 4 4 3 3 3 4 5 3 2 2 2 2 2 4 2 1 2 8 7 7 9 8 10 12 13 13 13 12 12 12 11 11 10 9 8 10 11 10 9 6 5 5 5 5 8 10 9 9 8 7 6 6 7 7 8 8 7 7 8 9 8 5 6 9 9 9 9 8 7 8 8 8 8 8 8 8 9 8 8 8 7 8 8 8 8
5 4 2 3 5 5 5 5 2 1 3 4 3 6 6 5 4 3 5 3 2 2 2 2 3 5 3 2 2 7 7 7 8 9 12 13 14 13 12 11 11 12 12 11 10 9 8 10 11 11 10 7 6 5 5 6 8 9 9 9 8 7 6 6 8 7 7 6 5 6 8 9 8 7 7 8 8 8 8 7 7 8 8 7 7 7 8 8 8 8 7 7 7 7 7 8 7
4 3 2 4 5 5 6 5 3 2 4 4 4 6 7 7 6 4 3 3 2 1 3 2 3 4 5 3 2 7 9 8 7 10 13 14 14 13 11 11 10 11 11 10 10 9 9 10 12 12 11 9 7 6 6 8 9 9 8 9 8 7 7 8 9 8 7 6 5 5 7 8 8 8 8 8 8 7 6 7 7 7 7 6 7 6 7 7 7 6 6 6 6 7 7 7 7
5 2 2 5 6 6 5 4 1 3 4 5 6 7 6 8 7 6 5 3 4 3 3 5 1 2 4 3 3 8 10 8 7 10 13 13 13 13 12 11 10 11 10 10 10 10 9 9 11 12 11 11 8 7 8 10 10 9 9 9 9 9 9 10 10 9 7 7 6 5 5 7 7 8 8 8 8 6 5 5 4 4 5 6 6 6 6 6 6 5 5 5 5 6 6 7 7
4 3 4 5 6 6 4 3 1 1 3 6 6 7 7 8 8 6 6 4 4 4 3 4 0 2 4 0 4 7 9 9 9 11 12 12 12 12 11 11 10 10 10 10 11 10 10 10 10 10 11 11 10 8 8 10 10 11 11 10 11 11 11 11 10 8 7 7 7 6 6 6 6 7 7 8 7 5 5 4 3 3 4 5 5 5 6 5 5 4 4 4 5 5 6 6 7
3 3 4 5 5 6 5 5 3 3 5 5 6 8 8 6 5 4 4 5 4 2 3 3 1 3 4 1 4 5 8 11 10 11 11 10 10 11 11 10 10 11 10 10 11 10 10 10 10 10 11 10 10 9 8 10 11 12 13 12 12 12 12 11 10 10 9 8 8 8 8 8 6 6 6 6 5 5 5 3 3 4 5 5 5 5 6 5 5 4 3 3 4 5 5 6 6
3 3 3 6 6 6 5 7 4 4 3 7 7 8 8 3 2 4 3 3 3 5 4 2 2 1 2 2 3 6 8 12 11 12 11 10 9 9 10 10 10 11 10 10 11 11 11 11 10 11 10 10 10 9 8 10 10 13 15 14 13 12 13 13 11 11 10 9 9 8 8 8 7 6 6 6 5 5 5 3 4 5 5 6 5 6 6 5 5 4 3 3 4 4 4 5 5
3 4 4 6 6 6 5 6 4 5 1 8 6 6 8 4 2 3 0 3 3 5 2 3 3 3 3 3 5 7 9 12 12 12 12 11 9 8 9 9 9 10 10 10 12 11 11 11 11 11 10 11 11 10 9 9 10 11 15 16 14 13 13 13 12 12 11 10 9 9 8 7 6 6 5 6 7 7 6 5 5 6 6 7 6 6 6 5 5 4 4 3 3 2 2 2 3
2 4 6 6 7 7 5 6 4 3 1 7 7 6 8 6 4 2 2 3 2 5 5 3 4 4 2 4 7 7 10 12 13 13 12 11 10 9 9 9 9 11 11 11 12 12 12 12 11 11 11 11 12 11 10 10 10 9 12 16 14 14 14 14 12 12 12 11 10 9 9 6 6 5 5 7 8 8 7 7 6 6 6 7 8 8 7 7 6 5 5 3 2 1 1 2 3
4 5 6 7 7 6 3 5 3 2 2 4 6 6 7 5 6 4 2 6 6 4 7 5 4 5 3 4 6 6 10 12 13 13 13 12 11 11 10 10 11 11 12 11 12 13 12 13 12 12 11 12 12 12 11 11 11 9 10 14 14 14 15 14 13 12 12 12 12 10 8 7 7 6 7 7 8 9 9 8 8 7 6 6 8 9 9 9 7 6 5 3 2 2 4 3 2
5 6 7 8 6 1 3 2 2 2 3 3 3 5 6 2 4 6 5 7 8 7 8 8 8 8 7 6 5 6 10 11 12 13 13 13 13 12 12 11 12 12 12 12 12 14 13 13 13 13 13 12 13 13 11 11 11 9 10 12 12 13 15 15 13 12 12 12 13 11 7 8 8 8 10 10 9 11 11 10 10 8 7 6 8 10 10 9 7 7 6 4 1 3 4 3 2
7 7 7 8 6 2 2 1 2 3 4 3 1 2 5 3 2 4 6 7 8 9 7 8 9 9 11 10 9 8 9 11 11 12 13 14 13 12 12 12 12 13 13 12 12 13 14 14 13 14 14 13 14 14 12 12 11 10 11 12 12 11 12 13 13 11 10 10 10 10 9 8 9 10 13 14 13 12 11 12 12 10 9 8 9 10 11 10 8 7 7 4 1 3 2 1 1
6 6 9 7 3 3 1 1 2 3 3 4 1 0 5 3 1 3 6 8 7 8 8 8 8 7 10 12 11 11 10 11 12 13 13 14 14 13 12 12 11 11 11 12 12 13 14 15 14 14 15 14 15 15 14 13 12 12 12 12 13 12 11 10 12 12 10 10 10 10 10 9 9 10 11 13 15 13 11 13 13 12 10 10 10 11 11 11 10 8 7 5 2 1 2 1 0
6 7 12 10 4 4 0 3 2 3 1 3 3 3 3 0 3 7 8 9 4 1 3 4 3 1 6 11 12 12 12 12 12 13 14 15 15 14 13 12 11 11 11 12 13 14 14 16 16 15 15 15 15 15 15 14 13 13 13 13 13 13 12 11 12 13 11 12 13 12 11 11 10 10 11 11 11 12 11 11 12 12 10 10 12 11 11 11 11 9 8 6 4 4 2 1 1
7 9 11 12 7 5 1 3 2 1 2 3 3 3 3 3 7 7 9 12 4 6 5 4 4 4 5 9 10 11 12 12 14 15 16 15 16 16 15 13 13 13 13 13 13 13 15 16 16 16 16 16 16 16 16 15 15 14 14 14 14 13 13 13 12 12 11 11 13 13 12 12 10 10 12 12 11 12 12 10 11 11 11 11 11 11 10 10 10 9 8 7 5 5 3 2 2
9 10 10 9 7 8 2 2 2 1 3 2 2 3 4 8 6 3 6 12 9 1 3 4 4 5 4 7 9 10 11 13 15 16 16 15 16 16 15 14 13 13 14 14 14 14 15 17 17 18 17 16 16 17 17 17 16 15 15 15 15 15 14 14 13 13 12 11 12 13 12 11 11 11 12 13 12 13 12 12 12 12 11 11 11 11 11 11 10 9 8 7 6 5 4 4 3
12 12 11 6 4 8 4 2 3 3 3 1 2 5 8 8 3 4 8 11 11 6 4 2 2 2 3 6 8 9 10 12 14 14 15 14 14 14 15 14 13 14 15 15 15 15 16 17 18 18 19 18 17 17 18 18 18 17 17 16 16 16 15 15 14 13 13 12 12 12 12 12 12 12 12 12 13 13 12 12 13 12 12 11 11 11 11 11 10 9 8 8 7 6 5 5 4
11 14 13 7 6 8 5 4 6 5 4 3 5 9 10 4 1 7 12 13 11 6 5 6 5 6 7 7 8 9 10 11 13 14 14 14 13 14 16 16 15 15 14 14 15 15 16 17 19 19 20 20 18 18 19 19 19 19 19 18 17 17 17 17 16 14 14 13 14 14 14 14 13 12 12 12 13 14 13 13 13 12 13 12 11 11 11 11 10 9 9 8 8 7 6 6 5
5 12 14 9 7 6 5 6 7 5 5 6 8 12 10 4 3 9 9 9 9 6 7 8 7 9 10 9 9 9 10 11 13 13 13 13 13 15 17 17 17 17 15 15 16 15 16 17 19 20 20 21 20 20 19 19 19 20 19 19 19 16 16 18 18 16 16 15 14 14 14 14 14 13 12 12 13 13 14 15 14 14 14 13 12 12 11 12 11 9 9 9 8 8 7 7 6
3 8 11 9 7 6 7 7 7 5 5 7 8 11 10 6 7 11 7 4 4 6 9 9 8 9 10 10 9 8 9 11 11 12 14 15 15 15 17 18 18 17 17 18 17 16 16 18 19 19 20 21 21 21 20 20 19 20 20 20 20 18 16 18 18 17 17 16 14 16 15 13 13 14 13 13 13 13 12 14 14 14 15 13 13 13 12 12 12 10 9 9 9 8 7 8 7
5 6 8 10 10 10 10 9 9 7 5 6 4 8 12 12 13 14 11 9 8 9 10 9 9 9 9 10 9 8 9 10 10 12 15 16 16 16 17 18 18 18 18 19 18 18 18 18 18 19 19 20 22 22 22 21 21 20 20 21 21 20 17 16 18 18 18 16 14 15 16 14 13 14 14 14 14 14 12 12 13 13 14 13 12 14 15 13 12 11 10 11 12 11 9 9 9
7 7 8 9 9 10 12 12 10 9 6 6 4 7 10 13 16 15 15 15 14 14 13 11 11 10 10 10 9 9 10 10 11 13 14 15 15 15 16 17 18 18 17 17 19 20 20 18 18 19 20 21 22 22 22 22 22 21 21 20 20 21 20 16 17 19 19 16 13 14 16 15 15 14 14 14 15 15 13 13 13 13 13 13 12 13 15 14 13 13 11 11 12 12 11 11 10
8 9 9 8 9 9 11 13 12 10 7 7 7 9 9 11 12 9 10 13 14 14 13 13 12 11 11 10 10 10 10 11 13 14 15 14 14 14 15 16 17 19 18 17 20 22 21 20 20 21 22 24 24 24 23 22 22 22 21 19 18 20 20 18 18 20 21 17 14 13 15 15 15 15 15 14 15 15 14 14 13 13 12 12 13 13 14 14 13 14 12 11 11 12 12 12 12
8 9 9 8 10 8 6 10 13 11 7 8 10 7 9 13 13 10 6 10 12 13 13 13 13 13 12 11 11 9 9 11 13 14 15 15 15 15 16 16 17 19 20 19 19 21 22 23 23 24 24 25 25 25 24 22 21 22 22 20 19 20 20 21 21 22 22 20 16 13 14 16 15 15 16 16 15 15 15 15 14 13 13 13 13 13 14 14 13 13 13 12 12 12 13 13 13
8 10 10 9 11 9 5 7 12 12 8 10 13 9 8 9 7 5 4 7 10 10 11 12 11 12 11 10 10 8 7 9 11 13 15 16 17 16 16 17 18 19 20 20 19 20 23 24 25 26 24 25 25 24 24 23 21 21 22 22 21 21 21 23 24 22 21 22 20 15 14 16 16 16 17 17 17 16 16 15 14 13 14 14 13 13 15 15 14 13 13 13 14 13 13 13 13
9 10 11 10 11 11 9 6 8 12 11 11 14 12 13 12 6 2 4 6 8 9 10 10 10 11 11 10 9 9 9 9 10 12 15 16 17 17 17 17 19 19 20 21 21 21 22 23 25 27 26 24 23 23 23 23 21 20 21 21 22 23 23 23 23 21 22 23 21 19 17 16 17 16 17 17 17 17 17 16 15 14 14 14 14 15 15 15 15 14 14 15 15 15 14 14 13
12 11 10 8 7 9 12 8 7 13 14 13 15 13 14 18 15 11 8 8 9 11 11 11 12 12 11 11 10 10 10 11 11 12 15 16 16 16 17 17 18 19 19 20 22 22 22 21 23 26 27 25 23 22 22 22 20 20 21 21 22 22 24 25 23 22 23 22 21 22 21 18 17 17 17 18 18 18 19 17 16 16 15 15 16 16 16 16 16 16 16 15 16 16 16 15 14
14 12 10 10 9 10 14 9 6 11 13 13 15 14 13 16 17 15 13 11 11 12 12 11 12 12 11 11 11 11 12 12 13 15 18 17 16 15 16 17 17 18 19 20 22 22 22 22 22 23 27 26 23 22 22 22 20 21 22 23 22 21 23 26 24 23 22 21 21 23 23 21 19 17 18 19 20 20 20 19 17 17 17 16 17 17 17 17 18 18 18 17 16 16 16 16 15
9 10 10 12 12 10 14 9 5 6 9 11 13 14 14 15 17 15 13 13 13 13 13 12 13 12 11 12 13 13 13 13 14 17 19 18 16 16 17 17 16 17 19 20 21 23 24 24 22 23 24 25 23 23 23 24 23 23 23 25 25 23 22 25 26 24 22 20 22 24 25 24 21 20 20 20 21 21 21 20 18 19 19 18 18 19 18 18 18 18 18 18 18 17 17 17 16
9 10 10 11 11 10 13 8 7 4 5 9 11 13 15 15 16 15 13 14 14 14 15 15 16 14 12 13 14 14 12 11 12 15 16 17 17 18 19 19 19 19 20 21 22 23 25 25 25 24 24 24 25 26 25 25 26 25 24 24 24 23 23 24 25 24 22 20 21 25 26 25 22 22 22 21 21 22 22 21 20 20 20 20 19 19 19 19 19 19 17 16 17 18 18 17 17
10 9 8 9 9 9 8 4 6 5 3 8 11 13 14 14 16 17 16 16 14 14 16 16 16 15 13 13 13 13 12 11 12 13 14 17 18 18 18 19 20 21 20 21 22 23 24 25 25 25 24 25 26 28 27 26 27 27 25 22 21 21 21 22 23 21 21 20 21 23 25 24 23 23 24 24 23 22 23 23 21 21 21 21 20 19 20 20 20 20 20 18 16 17 18 17 18
8 8 8 9 9 10 8 5 7 7 5 9 10 10 11 12 15 17 17 17 15 16 18 18 16 15 15 15 13 13 14 14 13 13 14 16 17 16 16 17 19 20 19 20 21 22 23 24 25 25 26 26 25 28 29 26 25 26 25 21 19 19 19 20 21 20 21 22 22 22 23 24 25 26 26 26 27 25 24 25 23 22 22 22 21 21 21 21 22 21 22 20 18 16 17 18 20
8 9 10 10 11 12 9 3 4 6 8 9 8 9 10 11 15 16 15 16 17 18 19 18 17 15 15 15 14 14 14 14 14 14 14 14 15 16 16 17 17 18 19 21 22 22 22 22 24 25 26 25 24 27 30 27 23 22 23 21 19 19 20 21 22 23 24 25 25 24 23 23 26 29 27 27 29 28 26 27 26 24 23 23 23 23 22 22 23 23 23 23 23 20 17 16 18
7 9 11 13 13 13 9 5 3 6 9 8 6 8 8 8 13 15 11 12 15 16 18 18 16 14 13 13 13 13 13 13 13 15 14 12 13 15 16 16 16 17 19 21 22 21 21 21 22 24 24 24 24 25 28 28 25 23 24 23 22 23 24 25 27 27 26 28 28 26 26 25 26 28 29 29 29 29 28 29 28 27 25 25 25 24 23 22 23 25 25 25 25 25 21 16 16
7 6 10 16 17 14 11 9 6 7 9 4 6 7 9 6 10 12 10 11 12 11 13 14 12 11 11 11 11 11 11 12 12 13 12 11 12 13 15 16 16 17 17 17 18 19 21 21 21 23 24 23 24 24 26 28 27 25 26 26 26 26 25 25 27 26 24 25 25 25 26 27 27 28 30 31 30 30 29 29 29 29 28 27 27 26 24 23 24 26 27 26 26 26 24 20 17
6 5 5 12 18 17 14 11 8 8 9 5 7 7 10 9 9 11 12 13 13 11 11 12 12 12 12 12 13 13 13 12 10 10 9 9 11 12 14 15 15 16 15 14 16 18 20 21 21 21 22 22 23 24 25 28 28 27 26 27 27 26 25 23 23 23 22 21 22 23 25 26 28 30 30 31 31 31 30 29 29 30 30 29 29 28 26 24 23 24 27 27 26 24 25 24 21
1 8 9 5 9 14 14 11 9 8 8 9 9 8 9 11 7 7 11 15 17 15 14 14 13 12 13 14 14 14 13 12 10 8 7 7 9 11 12 13 13 14 14 14 17 18 17 18 20 20 22 22 22 24 26 28 29 27 26 26 27 26 25 22 20 21 22 21 21 22 23 23 25 28 30 30 31 31 31 30 29 30 31 30 31 31 28 26 25 23 25 26 27 26 25 26 24
2 4 6 7 6 7 8 8 8 8 8 10 12 10 10 11 6 6 9 12 15 14 13 12 11 11 12 12 12 12 11 10 7 5 5 6 7 9 11 12 12 13 13 15 16 17 16 16 18 20 22 22 21 24 26 28 29 28 27 28 27 25 24 22 21 21 22 23 23 23 23 23 23 25 28 30 31 31 31 31 29 30 30 29 31 33 30 27 27 25 25 25 27 27 26 27 27
2 3 4 5 4 3 3 4 5 6 8 12 15 14 12 12 7 5 8 9 9 9 8 6 7 11 12 11 10 11 10 8 4 3 5 6 7 9 10 12 14 13 13 15 16 16 16 17 18 20 22 22 22 23 25 28 30 30 30 30 29 27 25 23 23 24 23 23 24 25 24 24 23 24 26 28 31 31 30 31 31 30 29 28 29 33 31 28 26 26 26 26 27 27 26 26 28
3 3 2 2 2 1 1 2 4 6 8 10 14 16 15 13 7 3 6 7 6 6 6 6 8 10 9 9 10 10 9 8 5 4 4 4 6 8 10 12 14 12 12 14 16 17 18 18 18 19 21 22 22 23 25 28 29 31 33 31 30 29 27 25 25 25 24 23 24 24 24 24 24 24 25 26 30 32 31 32 32 29 28 29 28 29 30 29 26 25 27 28 29 29 28 26 27
4 4 4 1 2 3 3 4 4 6 5 3 7 13 13 14 13 10 11 10 8 8 8 9 12 11 11 12 11 8 7 7 6 5 5 4 5 6 9 12 12 11 11 12 14 16 17 18 18 19 21 22 22 23 25 27 28 30 31 30 30 30 28 27 26 24 24 24 23 23 24 24 24 26 27 28 31 35 35 36 35 30 29 30 29 27 27 28 27 26 27 30 30 29 30 29 28
10 9 8 6 4 4 5 6 4 5 7 5 5 9 7 8 12 14 18 18 16 15 13 13 13 14 15 13 9 8 7 8 7 6 6 6 6 6 7 9 10 11 10 10 12 13 15 16 17 20 22 22 21 23 24 25 28 29 28 28 29 28 28 27 27 26 26 25 24 24 24 24 25 27 29 32 34 35 37 39 37 33 31 30 29 29 27 27 28 28 28 30 30 29 30 30 30
10 8 7 6 5 4 3 3 2 3 5 5 6 6 6 6 3 2 6 11 15 16 14 13 13 13 12 10 8 8 8 9 6 5 6 6 8 8 7 7 9 11 11 11 11 11 13 15 15 18 20 20 19 22 24 24 26 26 26 27 27 27 27 27 27 28 27 26 25 25 24 25 26 26 28 31 32 32 34 37 36 34 34 31 29 29 27 27 28 28 29 30 30 30 30 30 31
5 4 5 7 6 3 1 1 1 1 3 2 5 4 4 6 4 1 1 2 5 9 9 11 12 11 9 8 8 8 8 9 6 4 6 7 8 9 5 5 9 10 10 11 11 10 12 13 14 16 18 17 18 20 23 24 24 24 25 27 27 27 28 27 26 28 29 27 26 25 24 25 26 25 25 27 28 30 32 33 34 35 35 33 31 28 26 27 29 29 30 30 30 30 30 31 32
4 5 7 4 1 3 1 2 1 1 3 4 4 4 5 8 10 11 11 8 6 8 9 12 12 10 8 7 7 7 8 7 5 4 6 7 8 7 4 4 8 10 10 10 10 10 11 12 13 14 16 17 18 19 21 23 24 24 25 26 26 27 28 29 28 28 27 26 26 26 25 25 25 25 26 26 25 28 30 31 32 33 33 32 30 27 26 28 29 30 31 31 30 30 29 31 32
4 6 6 4 5 3 1 3 2 2 4 3 3 7 8 8 7 6 9 13 13 12 13 14 11 8 8 7 7 7 8 7 5 5 5 6 6 5 3 3 6 9 10 12 13 13 13 13 13 15 16 18 18 19 21 23 24 25 25 25 26 27 28 29 30 28 26 25 25 26 26 26 26 27 27 27 26 28 30 30 31 31 32 32 29 27 27 28 30 30 31 32 32 30 29 31 33
1 2 5 5 1 2 4 3 3 4 5 3 4 8 8 9 8 4 3 6 9 11 12 12 10 7 7 6 6 8 7 5 4 4 4 4 5 5 4 4 7 9 13 16 16 16 17 17 16 17 19 20 20 20 21 23 24 25 25 24 26 28 28 28 27 27 26 26 26 26 26 26 26 26 26 27 29 30 31 31 32 32 31 30 30 29 29 29 31 31 30 31 31 30 30 31 33
1 1 4 3 1 1 4 4 1 2 4 4 4 6 6 8 11 11 12 12 12 12 10 9 9 7 5 5 5 5 4 3 3 4 4 4 6 6 5 6 8 11 16 18 17 18 19 19 19 20 21 22 21 20 20 21 21 23 24 23 23 25 26 25 25 24 24 25 26 26 25 25 24 24 24 26 29 31 31 30 31 32 31 30 29 30 30 30 31 32 32 31 30 31 31 31 32
7 6 7 6 3 1 0 2 2 2 4 4 4 6 7 7 8 11 14 15 14 12 10 8 7 5 5 5 5 4 4 4 4 4 5 5 7 7 7 10 12 14 18 19 18 18 19 18 19 20 21 22 21 19 18 19 19 20 20 21 21 20 22 22 23 23 23 24 25 26 25 24 24 24 24 25 26 29 30 29 28 29 31 31 31 30 30 31 32 32 33 33 31 31 32 31 31
11 9 9 9 7 4 3 5 5 3 4 5 5 6 8 7 6 8 9 8 8 8 8 7 6 5 5 5 6 6 5 5 4 5 5 5 5 6 9 13 14 15 18 19 19 19 19 18 18 18 19 20 19 17 17 17 17 18 19 20 19 19 20 21 22 23 24 25 25 26 26 25 24 25 26 27 27 27 28 29 29 28 28 29 31 31 31 31 32 33 34 33 31 31 32 32 31
Wind_Direction
341 337 330 316 311 296 275 274 266 216 253 277 75 113 106 75 84 138 136 134 151 110 76 60 81 73 32 349 342 344 352 4 15 19 46 92 145 150 145 143 140 144 150 150 155 160 160 155 154 160 160 158 151 140 140 137 135 139 143 145 138 134 138 134 128 116 108 104 100 103 101 101 103 101 103 102 102 107 110 110 111 108 105 106 106 105 104 103 103 103 99 95 96 96 95 94 92
337 336 331 310 289 279 291 272 279 239 243 245 111 56 98 117 171 150 129 100 63 82 100 101 142 191 335 328 304 298 37 44 50 65 74 122 145 144 145 148 145 148 149 151 155 157 160 163 165 166 161 163 157 145 141 141 141 142 142 141 137 135 137 134 130 119 108 93 87 103 107 107 107 104 105 106 105 108 114 113 111 108 106 108 109 107 104 105 107 105 102 97 97 96 95 94 91
333 337 330 310 273 253 287 233 267 282 265 263 104 90 114 147 143 111 85 65 63 83 114 105 163 191 257 254 298 314 92 74 73 81 100 139 150 151 153 150 150 149 149 153 156 158 159 170 175 167 163 162 157 154 150 150 146 141 137 132 132 133 134 135 130 123 106 86 89 106 115 114 111 111 112 114 113 112 118 117 113 111 109 109 108 107 105 105 106 104 101 99 98 97 96 95 92
333 334 324 309 279 232 266 242 275 293 281 337 87 108 131 135 111 94 79 74 73 100 125 147 175 134 261 281 349 322 93 85 73 72 122 155 152 149 155 152 151 150 150 155 157 160 165 182 180 167 166 160 158 162 161 161 157 149 145 143 143 139 133 140 138 134 115 97 100 108 117 120 117 114 112 114 114 114 119 120 118 114 111 110 106 105 105 105 105 104 103 102 101 98 96 94 91
325 322 309 294 289 263 289 271 273 271 306 1 53 108 123 94 108 107 99 97 91 107 86 198 178 108 241 301 328 308 63 94 79 71 125 140 134 144 155 153 152 153 153 156 159 159 168 186 180 171 169 156 163 170 172 169 165 158 160 172 169 164 156 156 150 142 124 107 110 115 122 126 122 118 116 115 114 118 124 122 117 110 109 112 108 106 107 107 106 106 105 105 103 99 97 94 90
319 313 287 268 293 335 274 254 249 236 22 5 27 87 104 90 116 122 118 112 105 84 39 235 273 69 213 143 269 1 41 102 100 94 125 129 136 147 154 153 155 157 155 158 160 159 172 190 181 176 171 160 167 172 178 171 170 164 162 176 174 174 169 161 157 153 142 123 128 134 135 136 127 122 122 122 121 121 122 118 116 115 115 114 109 108 108 107 106 105 106 105 103 100 98 94 90
320 315 277 251 251 230 261 259 269 260 70 27 32 68 91 98 119 131 140 141 142 159 175 236 333 288 236 114 196 75 68 82 102 110 122 135 146 150 154 156 158 158 157 159 159 163 182 197 186 183 179 178 172 173 178 167 175 170 161 169 163 158 162 159 156 153 149 145 154 156 157 150 134 124 120 125 128 124 121 121 122 119 113 111 111 109 108 108 107 104 105 106 104 102 99 94 89
295 299 317 280 255 206 261 265 269 313 77 75 70 62 57 104 141 152 161 160 162 165 181 196 262 269 142 109 246 107 98 86 103 112 121 142 149 153 158 160 160 160 160 159 161 172 191 196 187 185 184 189 177 178 184 177 180 172 164 168 163 160 163 153 146 147 154 164 171 172 171 155 141 130 117 123 131 132 128 124 124 118 114 116 114 111 111 110 107 105 104 105 106 103 99 94 85
278 251 273 270 263 233 250 257 242 297 127 132 121 109 89 132 175 179 175 154 149 180 188 164 217 262 61 164 182 119 119 98 111 126 139 150 152 158 162 166 164 162 162 161 165 175 193 195 190 185 184 192 181 182 188 190 180 168 168 169 167 167 165 147 144 151 159 171 175 170 167 156 150 143 125 130 137 136 129 125 127 124 122 119 116 115 114 112 109 109 108 107 108 103 97 88 77
281 226 277 275 267 257 242 241 214 163 155 149 130 138 150 161 181 201 194 160 137 187 128 86 236 256 315 294 137 114 119 114 123 134 150 155 153 162 165 170 167 165 167 166 168 171 189 195 194 186 186 193 182 182 182 185 176 170 170 168 174 172 165 156 161 169 163 160 159 161 160 157 160 156 146 145 141 131 131 136 136 130 126 121 122 123 119 118 116 115 111 110 110 101 91 83 74
277 210 267 271 257 250 249 243 193 161 157 162 151 146 155 160 175 191 201 159 150 210 117 142 240 254 272 275 98 101 115 128 132 136 151 154 155 164 167 173 171 172 171 170 174 174 183 195 197 190 190 195 187 183 177 172 171 178 177 172 183 180 172 173 178 185 181 172 163 163 162 163 166 165 158 150 141 133 139 140 136 136 133 129 130 132 128 125 124 120 114 112 109 99 88 82 75
270 251 227 247 253 246 262 282 198 162 165 184 170 153 161 165 176 180 191 177 163 208 170 185 297 353 246 242 99 112 122 132 132 139 150 152 158 166 169 174 176 178 177 178 180 177 181 190 196 195 196 198 194 188 182 178 175 181 184 181 188 190 187 187 193 193 191 197 188 179 175 173 170 170 165 155 151 149 149 139 136 146 144 143 137 139 140 131 129 128 123 116 109 100 88 82 74
267 287 261 251 256 258 279 309 295 159 203 207 168 148 164 170 184 184 181 178 170 197 162 165 320 325 264 345 112 130 129 131 130 141 152 158 162 166 171 175 180 184 184 184 185 184 185 186 190 196 202 205 204 199 193 194 192 187 185 186 193 201 202 199 202 194 185 200 199 194 194 187 175 171 168 162 164 159 153 141 133 148 155 153 143 147 147 138 139 142 133 118 109 100 89 84 76
274 286 283 266 253 262 275 266 251 251 236 178 132 142 167 179 192 190 173 183 170 143 87 106 221 256 270 264 141 125 121 130 134 142 153 162 161 168 175 174 182 188 190 190 191 191 191 191 189 193 202 208 210 212 205 204 205 197 191 190 199 208 211 210 204 192 189 201 206 206 206 202 192 181 177 174 175 169 164 163 155 152 160 161 160 163 155 151 156 160 150 119 108 100 92 88 77
280 281 266 264 261 259 245 246 252 263 237 124 125 149 167 175 178 195 194 204 110 88 86 111 230 246 323 311 92 89 117 132 138 143 152 162 162 172 177 179 187 189 193 196 198 197 197 198 195 196 198 202 206 208 207 211 211 204 199 196 202 210 212 217 209 198 199 207 213 211 209 208 209 201 194 197 194 187 180 184 187 177 176 177 178 176 167 164 174 179 162 130 115 100 94 89 71
282 288 249 249 257 257 226 229 243 252 199 105 132 154 170 171 158 213 343 341 88 119 178 161 200 258 346 13 74 94 125 135 140 143 152 163 167 178 182 190 195 193 197 201 203 202 203 203 200 202 200 203 204 202 203 212 217 211 208 204 205 212 214 218 214 209 210 211 214 213 214 211 213 214 214 218 210 202 195 191 200 204 203 200 196 185 175 174 186 192 171 148 125 102 93 81 66
259 264 247 244 240 249 234 220 224 251 56 107 147 162 188 176 159 223 25 291 221 150 199 181 173 239 311 69 88 106 133 138 141 147 157 169 177 186 193 200 203 202 202 205 208 205 207 208 205 207 206 208 206 206 206 209 222 220 211 210 210 216 220 221 218 216 215 214 214 217 222 216 213 219 226 228 221 218 213 209 215 220 219 210 201 189 183 189 194 193 182 165 137 99 70 67 63
236 238 240 245 236 246 256 235 233 299 342 113 158 185 214 189 161 177 157 228 222 174 196 196 188 220 229 107 101 121 143 148 148 156 165 174 184 190 198 204 208 209 206 209 213 210 210 210 209 210 210 211 209 210 209 210 223 220 207 210 213 219 223 225 224 221 219 217 218 221 222 217 215 216 218 222 222 220 219 225 231 231 233 224 213 202 194 200 201 193 191 184 161 73 75 74 44
230 241 241 243 244 285 42 334 342 342 344 64 150 203 233 238 137 165 205 219 203 212 206 196 212 216 204 168 150 147 157 165 162 169 174 179 188 190 197 202 208 213 213 215 216 214 213 213 212 212 212 211 210 211 211 213 217 211 203 207 213 220 225 227 226 224 221 219 220 219 217 218 216 215 221 223 221 221 225 235 239 238 241 241 231 219 211 211 206 196 199 199 145 67 81 83 31
228 238 245 246 256 290 64 0 8 25 358 1 109 199 243 266 80 159 223 237 208 225 220 198 212 211 204 188 175 169 174 181 178 184 185 188 193 193 199 201 206 211 216 219 219 218 216 216 215 214 214 213 212 211 212 214 213 209 205 207 209 213 220 224 223 221 218 214 217 215 216 221 212 219 235 233 226 228 234 236 238 240 243 245 233 223 221 218 212 206 209 206 126 70 97 126 46
225 227 244 254 289 277 218 126 51 42 4 328 353 331 254 240 199 203 234 248 225 232 230 211 217 209 195 183 178 180 185 192 192 198 199 198 198 200 206 206 207 209 212 217 220 220 217 217 217 216 215 215 216 213 213 216 214 213 210 210 211 210 212 216 217 218 217 213 217 217 219 223 215 222 241 236 226 229 237 235 237 241 241 245 235 220 219 219 213 211 214 210 189 189 199 190 49
236 233 247 260 294 277 211 85 62 51 15 289 269 261 278 228 228 236 237 243 238 309 266 227 234 222 165 167 175 183 190 199 200 206 209 207 204 205 207 206 207 207 208 213 216 219 217 218 217 217 215 215 218 216 216 218 216 216 213 212 212 213 213 213 215 216 217 219 223 221 219 228 230 228 234 233 223 224 231 230 234 235 230 237 236 218 212 215 211 210 212 212 209 210 209 201 227
234 234 241 251 259 262 0 74 79 53 248 253 268 304 329 272 254 240 231 243 263 39 25 21 45 61 121 159 172 185 195 201 204 209 213 213 212 209 207 205 204 204 206 210 213 214 215 217 217 217 216 214 217 219 220 220 218 218 218 216 214 215 215 215 216 215 217 221 225 223 221 230 239 237 232 230 224 222 225 224 227 230 224 229 233 219 209 210 208 209 211 212 214 212 216 225 228
230 240 240 241 242 248 253 91 125 199 250 265 308 317 278 255 262 251 235 248 256 279 66 48 60 84 123 165 176 192 202 206 209 212 213 217 219 216 213 210 208 206 206 208 209 210 211 213 214 216 217 214 214 218 220 221 221 220 221 221 218 216 216 216 217 219 220 219 223 224 224 230 235 235 231 228 225 223 224 224 224 227 227 227 227 220 213 209 208 210 211 212 215 215 221 227 233
226 239 246 234 228 241 226 175 204 225 239 253 260 263 258 254 293 284 258 259 258 239 185 152 125 147 186 196 196 203 209 212 216 217 216 220 222 221 219 218 216 213 211 208 205 207 209 209 211 213 214 213 213 215 218 221 221 220 221 221 220 217 215 217 217 220 222 221 223 224 223 225 228 227 225 224 221 221 222 223 223 224 228 227 223 219 213 209 209 211 212 215 216 217 225 228 232
219 228 240 230 229 231 208 213 222 225 231 228 238 253 255 234 341 273 253 255 258 234 205 212 222 236 237 232 222 215 215 216 217 218 218 219 220 220 219 217 219 220 218 213 208 208 208 207 209 211 211 211 212 214 216 218 220 219 220 221 220 219 218 220 219 220 221 221 224 226 223 220 224 223 220 221 217 217 219 220 223 223 225 223 220 217 212 210 208 210 212 214 215 217 225 228 233
216 222 234 235 238 220 200 227 224 220 232 229 237 253 253 175 187 255 240 243 249 227 224 225 228 243 245 243 236 224 222 220 215 216 217 215 216 218 218 216 218 220 219 218 215 212 209 208 210 211 209 209 210 212 214 215 219 220 220 221 221 220 221 220 218 220 221 221 220 224 224 219 222 224 220 220 219 217 219 225 228 228 230 225 219 214 211 210 208 211 214 212 215 218 224 228 233
240 223 228 226 232 223 210 226 223 219 226 220 237 261 255 202 213 246 241 227 217 223 238 225 220 240 246 246 240 225 225 224 217 214 214 213 213 214 215 215 216 217 217 219 216 213 212 210 211 211 209 209 209 212 214 214 217 219 220 221 222 221 221 220 218 220 221 222 219 219 225 224 222 225 224 223 225 223 222 229 231 232 234 227 219 214 209 208 209 213 213 211 213 215 224 230 232
233 217 226 223 228 232 220 218 215 218 220 196 224 268 251 232 232 238 234 228 217 226 242 233 228 235 240 244 242 229 223 223 217 213 217 219 216 214 215 216 214 214 218 220 216 214 214 212 211 210 210 210 210 213 216 217 218 218 219 220 220 221 220 220 220 222 221 221 220 218 223 225 222 225 228 226 228 231 229 227 226 228 229 222 216 215 212 207 207 212 214 218 222 221 228 233 232
219 211 236 234 230 234 220 217 211 214 210 168 200 263 248 238 239 232 220 223 228 234 242 245 245 244 241 242 240 236 224 214 215 215 219 223 223 220 219 219 214 214 218 218 216 216 214 211 209 208 209 209 210 213 216 219 221 220 220 218 218 219 218 219 220 222 223 222 221 221 221 223 224 224 226 227 229 233 233 229 226 225 224 217 211 212 212 208 207 212 212 220 228 227 229 232 230
213 215 235 234 237 241 213 200 195 203 193 169 212 257 259 256 254 240 209 212 230 238 242 245 248 250 248 245 239 237 229 220 219 222 223 226 229 225 222 220 216 215 216 214 215 216 214 211 212 212 214 212 210 212 214 217 221 222 222 220 217 217 218 220 220 220 223 222 221 224 223 221 222 224 224 226 229 232 233 230 227 224 220 215 210 209 208 206 208 211 210 214 223 225 227 230 229
208 216 226 223 233 241 204 187 191 200 185 180 213 248 261 260 262 261 214 202 225 239 244 247 249 252 254 254 247 240 238 235 230 230 230 229 230 227 223 222 219 218 217 217 216 214 212 212 217 219 219 218 213 212 213 214 218 222 224 224 220 219 220 221 221 221 222 222 222 222 224 222 220 223 224 225 227 230 232 231 229 224 219 214 211 208 205 205 205 208 212 215 221 225 225 228 229
205 216 227 219 222 225 199 181 197 211 203 193 212 240 262 257 256 256 203 207 232 243 250 252 254 257 259 262 261 253 247 245 241 237 233 230 229 226 224 224 224 222 221 221 217 212 213 213 218 221 219 220 217 212 212 212 215 220 223 226 225 222 223 224 222 222 222 223 223 222 224 227 224 222 223 225 227 229 231 230 227 222 217 215 212 209 208 207 206 209 216 219 222 227 228 228 229
204 213 229 227 228 229 211 184 192 212 218 210 215 234 251 254 257 203 167 201 236 248 251 255 259 261 262 263 264 257 249 249 248 244 239 234 230 226 223 225 226 226 224 224 221 217 217 214 216 222 220 217 215 211 211 212 214 220 224 227 228 226 226 227 222 221 224 224 223 223 224 227 227 225 222 223 227 229 231 230 226 221 215 215 216 215 213 211 212 215 219 220 222 226 230 231 230
204 205 219 230 235 230 221 215 191 194 208 222 223 229 241 252 258 249 224 208 226 251 256 259 260 260 262 261 259 255 251 251 247 247 246 240 234 226 221 223 224 226 225 224 222 219 220 217 214 220 222 215 211 210 211 211 212 219 226 227 229 229 228 229 225 222 223 220 221 225 225 225 227 227 223 222 224 226 229 229 225 221 215 214 218 219 216 213 213 215 218 221 223 225 229 232 233
216 211 206 219 226 225 227 226 186 189 207 223 230 237 241 249 256 255 252 238 235 251 257 258 257 256 258 258 255 253 252 252 250 249 250 249 245 230 220 223 223 225 225 222 220 217 218 218 214 216 220 216 209 206 206 206 208 217 224 226 227 227 226 228 228 224 221 219 223 226 224 223 225 227 224 223 223 223 226 228 225 221 217 214 216 220 217 213 213 214 218 221 223 227 228 230 232
239 221 204 219 226 229 231 215 152 190 224 225 230 243 245 252 259 258 260 257 252 254 255 255 254 254 254 255 256 255 255 256 257 254 252 252 245 228 222 227 224 223 225 220 216 215 215 216 214 213 216 213 206 205 204 203 204 210 218 222 224 225 225 227 228 226 224 224 226 226 224 222 222 224 225 222 221 221 223 225 225 223 218 215 217 220 218 215 215 215 217 220 222 226 227 226 225
246 227 213 223 225 233 237 205 139 166 242 242 240 250 250 253 261 262 261 259 257 256 257 255 255 258 258 258 258 257 259 259 258 255 251 247 235 223 223 229 226 223 223 220 215 215 215 214 214 213 213 211 207 206 205 204 204 205 210 216 221 223 224 223 222 223 225 226 225 224 222 219 217 219 223 221 217 219 221 221 223 223 219 216 218 220 218 216 215 213 214 216 218 222 225 223 215
235 236 227 227 226 232 234 169 142 171 237 257 258 262 259 256 260 263 259 256 255 252 254 254 255 261 261 259 260 260 264 262 258 257 252 248 240 227 221 225 229 227 226 224 219 216 215 214 214 213 212 212 210 209 208 207 206 205 205 209 214 218 223 224 223 224 225 226 225 222 220 216 213 215 219 220 217 215 218 219 220 221 218 214 215 216 215 214 213 213 212 212 215 218 222 223 213
225 231 223 227 228 231 233 181 177 202 230 261 275 276 266 262 263 263 258 253 252 249 249 251 251 257 259 259 261 262 264 263 261 258 255 254 251 239 224 221 227 228 227 226 222 218 217 215 214 214 214 214 210 212 214 211 208 208 205 205 208 214 222 227 228 228 227 225 224 221 219 214 213 215 214 216 219 216 214 216 217 216 215 212 212 213 211 211 212 212 212 211 212 215 217 220 215
218 226 226 235 232 234 246 216 185 221 237 246 268 280 265 251 251 256 255 245 241 239 241 244 246 249 252 255 258 257 257 259 259 259 258 258 255 249 238 228 223 223 224 226 224 221 219 219 217 217 218 215 212 214 216 212 209 206 202 201 206 216 224 224 224 225 225 223 222 220 218 214 212 214 213 212 218 217 212 214 214 213 212 211 212 213 211 212 212 212 211 210 211 213 215 216 213
218 225 231 244 249 242 234 221 224 253 252 221 218 267 269 243 243 250 252 245 239 234 231 236 244 249 249 252 254 251 249 248 246 249 254 256 255 252 249 241 230 225 226 229 229 226 225 224 222 220 219 217 214 213 212 210 207 203 200 199 201 209 216 217 218 219 219 218 219 218 217 216 213 213 214 214 215 215 214 214 213 212 211 211 212 213 213 212 212 213 211 210 211 214 216 216 212
229 229 229 235 250 256 237 228 230 254 270 215 177 257 281 265 252 254 260 259 252 236 224 230 239 245 245 248 253 254 252 246 240 240 242 246 248 249 251 249 244 239 236 234 231 230 229 227 224 220 220 219 216 211 208 207 207 206 205 204 203 205 210 214 216 217 218 218 218 216 215 216 215 213 214 216 215 214 215 215 215 215 213 211 211 212 213 211 213 216 214 212 213 213 214 218 218
228 0 318 237 238 247 240 237 237 247 271 250 189 237 277 274 258 257 262 264 261 243 227 230 233 240 248 251 256 259 258 255 249 240 231 233 238 245 255 260 256 252 247 237 232 233 231 229 226 221 221 221 216 211 207 204 207 209 209 210 211 210 212 214 213 215 218 218 216 214 213 214 214 214 214 215 215 215 215 215 215 216 215 214 214 213 213 212 212 217 217 214 215 213 211 216 221
226 13 352 298 256 252 242 238 245 249 261 256 225 218 258 269 259 249 247 248 253 248 239 242 241 243 252 254 256 259 261 263 262 249 232 233 239 245 258 264 259 254 247 237 238 242 238 231 229 225 223 221 215 215 212 208 209 211 212 215 217 217 217 216 213 213 214 213 213 213 212 213 213 214 214 213 214 214 214 215 215 215 215 217 218 216 215 216 214 215 216 213 212 214 214 216 219
55 28 5 355 333 284 253 236 240 247 247 247 236 221 246 270 262 235 232 233 245 249 244 245 239 238 248 252 256 262 267 271 267 250 240 241 242 247 258 263 258 252 246 240 241 244 240 234 231 227 225 222 216 215 213 211 211 212 214 217 219 219 217 215 213 213 212 209 211 212 211 212 213 214 215 214 216 214 213 214 214 215 216 218 221 220 218 216 216 217 218 217 215 214 216 219 220
118 72 37 354 347 332 299 248 225 236 241 239 233 223 236 265 264 229 235 233 239 246 233 220 221 232 246 255 260 263 270 279 268 237 244 241 238 245 252 259 260 257 249 244 244 244 240 235 232 229 227 224 220 214 212 213 212 212 215 217 218 219 217 214 213 214 213 209 209 210 209 210 212 212 214 215 216 215 213 215 217 218 219 219 221 222 219 214 214 219 221 222 223 220 219 222 224
143 95 82 349 330 320 334 231 209 220 234 236 230 222 229 249 253 224 246 236 223 232 227 237 245 242 251 260 263 268 275 283 273 250 257 247 245 250 250 256 262 260 249 241 246 252 249 240 234 233 232 226 222 217 214 214 213 215 218 218 218 219 217 215 216 216 214 210 209 208 207 208 209 210 212 212 215 217 215 216 220 222 220 220 221 221 219 217 217 220 222 225 227 225 225 226 225
177 151 156 171 261 241 216 201 207 223 242 255 214 210 220 247 254 250 251 245 237 241 244 260 267 263 266 266 266 275 280 281 278 274 281 271 261 259 255 261 268 264 252 240 243 251 251 244 235 234 235 230 224 221 218 216 215 218 220 219 220 222 220 219 220 221 218 216 214 210 207 207 207 209 210 211 218 222 220 219 221 221 220 221 223 221 221 222 221 220 223 225 225 225 226 226 226
193 188 185 183 204 241 234 216 214 227 245 265 220 203 210 251 263 251 241 239 242 245 248 259 266 264 265 267 273 281 279 278 279 278 280 274 269 263 257 265 271 269 266 256 246 244 244 242 236 235 238 235 226 223 222 220 220 221 221 222 223 223 223 222 222 222 222 221 219 216 212 209 210 212 213 218 224 225 224 225 224 220 220 222 222 223 224 225 222 221 224 225 225 227 227 226 228
197 198 194 198 204 224 244 229 234 261 255 237 214 201 193 214 254 279 236 235 237 242 247 250 254 256 259 266 272 273 274 275 272 270 272 273 276 274 263 265 271 271 276 274 261 247 242 241 238 239 242 240 232 227 226 224 225 225 224 225 225 225 226 226 226 227 226 223 222 221 218 216 216 217 219 225 228 226 226 228 225 221 222 223 223 226 226 225 224 223 225 227 227 229 228 227 229
187 164 192 224 218 199 297 331 151 330 319 245 209 209 210 232 268 347 111 131 208 232 237 236 241 246 251 258 259 260 270 273 268 265 272 278 281 279 264 265 278 278 278 278 273 261 252 248 246 245 246 245 239 233 230 228 228 228 226 226 226 228 230 228 228 230 229 226 225 224 223 223 222 221 225 231 229 226 227 228 226 224 225 225 226 228 226 225 226 225 226 227 228 229 229 228 229
163 163 193 214 125 123 199 269 136 123 274 260 235 239 245 267 278 260 238 225 211 219 231 240 246 242 243 253 254 257 264 265 260 259 273 283 286 286 264 262 287 288 284 282 281 275 264 258 254 251 250 246 240 236 233 231 230 229 227 226 225 227 228 227 228 228 227 228 229 228 228 229 228 226 229 232 229 226 227 228 227 227 226 225 226 225 223 224 225 226 228 228 228 229 229 228 227
160 185 173 106 56 74 154 246 221 200 247 263 251 250 247 250 269 264 235 228 225 227 236 247 254 242 233 239 241 248 253 255 260 262 270 279 285 293 278 268 290 293 291 292 293 292 282 272 263 255 252 249 243 237 233 232 231 231 230 227 226 227 227 227 229 228 228 228 227 228 228 228 229 231 233 232 228 227 228 229 228 227 227 226 223 221 221 224 225 226 228 230 230 230 229 228 226
104 183 152 132 149 176 161 204 230 225 244 260 230 239 245 239 248 274 257 235 235 237 237 242 247 234 222 230 241 248 252 261 274 276 281 285 296 313 316 301 302 303 304 302 301 301 295 290 282 270 265 263 255 245 237 233 231 232 233 230 229 230 230 229 230 230 229 228 227 227 227 227 228 231 231 229 227 229 231 232 230 228 227 225 222 221 224 225 225 225 226 228 229 228 227 227 226
129 180 169 176 258 180 173 191 197 217 235 256 247 236 234 235 246 256 259 261 261 257 250 244 245 242 243 259 264 264 272 287 297 301 309 312 313 322 324 307 304 312 316 311 305 304 301 298 293 284 280 275 266 254 244 239 235 234 234 232 231 231 231 230 230 230 229 229 230 230 229 229 229 230 229 227 227 230 231 231 230 229 226 222 222 225 227 226 224 223 223 225 226 226 226 226 226
181 189 187 192 198 148 211 201 175 205 222 229 252 253 244 237 247 254 254 257 260 260 260 252 251 266 280 280 281 291 300 301 309 318 324 322 317 318 318 312 311 318 324 321 314 311 308 303 298 294 290 283 272 260 249 244 242 239 237 235 233 232 232 232 232 232 232 231 232 233 233 232 231 232 233 231 227 227 229 230 230 229 226 224 226 226 225 223 222 222 222 224 226 226 224 224 224
191 198 194 193 188 172 204 212 192 198 217 212 229 258 258 243 248 267 263 261 266 268 264 259 266 287 293 289 285 288 299 312 325 328 324 317 313 313 312 314 317 320 325 327 325 321 317 313 310 306 299 291 283 270 254 245 242 240 239 238 236 234 232 232 230 231 233 234 233 232 233 234 233 234 235 234 231 230 232 231 228 227 226 227 227 224 221 221 221 221 220 221 223 223 223 223 225